This demonstration page uses our WeatherBlox Daily Observations layout. Learn more.

Left ArrowRight Arrow

39.08367, -84.50855

Hourly Observations for December 3, 2017

Temp ( °F °C ) Dew Point ( °F °C ) Humidity (%) Winds ( mph kmh ) Pressure ( in mb ) Visibility ( mi km ) Precip ( " mm )
12:53 am 00:53 Clear with Mist and Fog 30 -1.1 29 -1.7 96 96 N N/A 30.19 1022 5 8 N/A
1:26 am 01:26 Clear with Mist and Fog 29 -1.7 28 -2.2 96 96 N N/A 30.24 1024 2 2 N/A
1:35 am 01:35 Clear with Mist and Fog 29 -1.7 29 -1.7 100 100 N N/A 30.24 1024 1 1 N/A
1:39 am 01:39 Clear with Mist and Fog 29 -1.7 29 -1.7 100 100 N N/A 30.24 1024 2 3 N/A
1:49 am 01:49 Clear with Mist and Fog 28 -2 28 -2 100 100 N N/A 30.24 1024 1 1 N/A
1:53 am 01:53 Clear with Mist and Fog 30 -1.1 29 -1.7 96 96 N N/A 30.21 1023 1 1 N/A
1:59 am 01:59 Clear with Mist and Fog 30 -1.1 29 -1.7 96 96 N N/A 30.24 1024 2 3 N/A
2:19 am 02:19 Clear with Mist and Fog 30 -1.1 29 -1.7 96 96 N N/A 30.24 1024 4 6 N/A
2:53 am 02:53 Clear with Mist and Fog 29 -1.7 29 -1.7 100 100 N N/A 30.22 1023 5 8 N/A
3:08 am 03:08 Clear with Mist and Fog 28 -2.2 27 -2.8 96 96 N N/A 30.24 1024 2 3 N/A
3:19 am 03:19 Clear with Mist and Fog 28 -2.2 27 -2.8 96 96 N N/A 30.24 1024 3 5 N/A
3:31 am 03:31 Clear with Mist and Fog 27 -2.8 27 -2.8 100 100 N N/A 30.24 1024 2 2 N/A
3:40 am 03:40 Clear with Freezing Fog 28 -2.2 28 -2.2 100 100 N N/A 30.24 1024 0 0 N/A
3:50 am 03:50 Clear with Mist and Fog 28 -2 28 -2 100 100 N N/A 30.24 1024 1 2 N/A
3:53 am 03:53 Clear with Mist and Fog 29 -1.7 28 -2.2 96 96 N N/A 30.21 1023 2 3 N/A
4:03 am 04:03 Clear with Mist and Fog 28 -2.2 28 -2.2 100 100 N N/A 30.24 1024 1 2 N/A
4:33 am 04:33 Clear with Mist and Fog 27 -2.8 26 -3.3 96 96 N N/A 30.24 1024 2 3 N/A
4:35 am 04:35 Mostly Clear with Mist and Fog 27 -2.8 26 -3.3 96 96 N N/A 30.24 1024 2 3 N/A
4:43 am 04:43 Mostly Clear with Mist and Fog 27 -2.8 26 -3.3 96 96 N N/A 30.24 1024 3 5 N/A
4:53 am 04:53 Mostly Clear with Mist and Fog 26 -3.3 25 -3.9 96 96 N N/A 30.23 1024 1 2 N/A
4:55 am 04:55 Mostly Cloudy with Mist and Fog 27 -2.8 25 -3.9 92 92 N N/A 30.24 1024 1 1 N/A
5:05 am 05:05 Mostly Cloudy with Freezing Fog 27 -2.8 27 -2.8 100 100 N N/A 30.24 1024 0 0 N/A
5:16 am 05:16 Mostly Cloudy with Freezing Fog 26 -3.3 26 -3.3 100 100 N N/A 30.24 1024 1 1 N/A
5:25 am 05:25 Mostly Clear with Mist and Fog 27 -2.8 27 -2.8 100 100 N N/A 30.24 1024 1 2 N/A
5:34 am 05:34 Clear with Mist and Fog 28 -2.2 27 -2.8 96 96 N N/A 30.24 1024 3 4 N/A
5:43 am 05:43 Clear with Mist and Fog 28 -2.2 27 -2.8 96 96 N N/A 30.24 1024 4 6 N/A
5:53 am 05:53 Clear with Mist and Fog 26 -3.3 25 -3.9 96 96 N N/A 30.23 1024 5 8 N/A
6:20 am 06:20 Clear with Mist and Fog 26 -3.3 25 -3.9 96 96 N N/A 30.27 1025 2 2 N/A
6:46 am 06:46 Clear with Mist and Fog 26 -3.3 25 -3.9 96 96 N N/A 30.27 1025 2 3 N/A
6:53 am 06:53 Clear with Patchy Fog 26 -3.3 25 -3.9 96 96 N N/A 30.26 1025 5 8 N/A
7:53 am 07:53 Sunny with Patchy Fog 26 -3.3 24 -4.4 92 92 N N/A 30.28 1025 5 8 N/A
8:53 am 08:53 Sunny with Mist and Fog 31 -0.6 30 -1.1 96 96 N N/A 30.29 1026 4 6 N/A
9:53 am 09:53 Sunny 35 1.7 33 0.6 93 93 N N/A 30.31 1026 7 11 N/A
10:53 am 10:53 Sunny 41 5 37 2.8 86 86 N N/A 30.30 1026 10 16 N/A
11:53 am 11:53 Sunny 49 9.4 39 3.9 69 69 N N/A 30.27 1025 9 14 N/A
12:53 pm 12:53 Sunny 54 12.2 34 1.1 47 47 N N/A 30.25 1024 10 16 N/A
1:53 pm 13:53 Sunny 57 13.9 36 2.2 45 45 N N/A 30.24 1024 10 16 N/A
2:53 pm 14:53 Sunny 58 14.4 35 1.7 42 42 N N/A 30.22 1024 10 16 N/A
3:53 pm 15:53 Sunny 58 14.4 39 3.9 50 50 N N/A 30.22 1023 10 16 N/A
4:53 pm 16:53 Sunny 51 10.6 35 1.7 54 54 S 6 9 30.23 1024 10 16 N/A
5:53 pm 17:53 Clear 45 7.2 35 1.7 68 68 N N/A 30.23 1024 10 16 N/A
6:53 pm 18:53 Clear 42 5.6 36 2.2 79 79 N N/A 30.24 1024 10 16 N/A
7:53 pm 19:53 Clear 38 3.3 35 1.7 89 89 N N/A 30.25 1024 10 16 N/A
8:53 pm 20:53 Clear 35 1.7 33 0.6 93 93 N N/A 30.24 1024 10 16 N/A
9:53 pm 21:53 Clear 35 1.7 33 0.6 93 93 N N/A 30.24 1024 10 16 N/A
10:53 pm 22:53 Clear 33 0.6 32 undefined 96 96 N N/A 30.22 1024 7 11 N/A
11:53 pm 23:53 Clear with Mist and Fog 32 undefined 31 -0.6 96 96 N N/A 30.22 1024 4 6 N/A

Powered by AerisWeather